STARLINK-1991 (47587 NORAD) Tracking and Keplerian Element Data

This shows tracking and keplerian element data for the satellite.

Feedback or suggestion? Click here.




ElementValue
Catalog47587
NameSTARLINK-1991
Epoch Orbit1076
Epoch Day99.91667824
Epoch Year2021
RAAN167.3135
Inclination53.0521
Eccentricity0.0003798
Argument of Perigee12.5381
Mean Anonmoly140.427
Mean Motion15.62690584
Decay Rate0.00020609
L11 47587U 21009AR 21099.91667824 .00020609 00000-0 23086-3 0 9996
L22 47587 53.0521 167.3135 0003798 12.5381 140.4270 15.62690584 10760

Live tracking and technical data element details for STARLINK-1991 (NORAD 47587). STARLINK-1991 can be tracked NOW for your location showing map with azimuth and elevation plus other details from your city location.

Track the satellite on the map from your city or location and see movement details for azimuth, elevation, latitude, longitude, range, height, and movement on the map or in text.







IsCatalogInMostPopularTable: catalog: 47587, numindb: 15
Update: records affected: 1



GetName: 47587 STARLINK-1991

Hit Count: updated at: Sat, 10 Apr 2021 19:56:51 GMT